Weather History for Salem, OR

Change the Weather History Date:

Friday, February 24, 2012

  Actual Average Record
Temperature  
Mean Temperature 43 °F 44 °F  
Max Temperature 53 °F 53 °F 66 °F (1970)
Min Temperature 32 °F 35 °F 15 °F (1962)
Degree Days  
Heating Degree Days 22 21  
Month to date heating degree days 510 531  
Since 1 July heating degree days 2986 3158  
Cooling Degree Days 0 0  
Month to date cooling degree days 0 0  
Year to date cooling degree days 0 0  
Moisture  
Dew Point 37 °F    
Average Humidity 73    
Maximum Humidity 92    
Minimum Humidity 54    
Precipitation  
Precipitation 0.31 in 0.15 in 1.71 in (1976)
Month to date precipitation 2.37 3.94  
Year to date precipitation 12.69 9.90  
Snow  
Snow 0.00 in - - ()
Month to date snowfall 0.0  
Snow Depth 0.00 in    
Sea Level Pressure  
Sea Level Pressure 29.98 in    
Wind  
Wind Speed 9 mph (South)    
Max Wind Speed 21 mph    
Max Gust Speed 26 mph    
Visibility 9 miles    
Events Rain    
T = Trace of Precipitation, MM = Missing Value Source: NWS Daily Summary

Daily Weather History Graph

Daily Weather History Graph

Search for Another Location

Airport:

Trip Planner

Search our weather history database for the weather conditions in past years. The results will help you decide how hot, cold, wet, or windy it might be!

Date:

Astronomy

Feb. 24, 2012 Rise Set
Actual Time 6:58 AM PST 5:52 PM PST
Civil Twilight 6:29 AM PST 6:21 PM PST
Nautical Twilight 5:55 AM PST 6:55 PM PST
Astronomical Twilight 5:21 AM PST 7:29 PM PST
Moon 7:46 AM PST (2/24) 9:12 PM PST (2/24)
Length of Visible Light 11h 52m
Length of Day
10h 53m
Waxing Crescent, 8% of the Moon is Illuminated
Feb 24
Waxing Crescent
Feb 29
First Quarter
Mar 8
Full
Mar 14
Last Quarter
Mar 22
New

Hourly Weather History & Observations

Time (PST) Temp. Windchill Dew Point Humidity Pressure Visibility Wind Dir Wind Speed Gust Speed Precip Events Conditions
12:56 AM 39.0 °F 36.8 °F 34.0 °F 82% 30.32 in 10.0 mi SSE 3.5 mph - N/A   Overcast
1:56 AM 39.0 °F 36.8 °F 34.0 °F 82% 30.30 in 10.0 mi SSE 3.5 mph - N/A   Overcast
2:56 AM 39.0 °F 36.8 °F 34.0 °F 82% 30.28 in 10.0 mi SE 3.5 mph - N/A   Overcast
3:56 AM 37.9 °F 35.5 °F 34.0 °F 86% 30.26 in 10.0 mi SSE 3.5 mph - N/A   Overcast
4:56 AM 36.0 °F 33.3 °F 32.0 °F 86% 30.24 in 10.0 mi SSW 3.5 mph - N/A   Clear
5:56 AM 33.1 °F - 30.9 °F 92% 30.22 in 10.0 mi Calm Calm - N/A   Clear
6:56 AM 32.0 °F 25.6 °F 30.0 °F 92% 30.18 in 10.0 mi SE 6.9 mph - N/A   Clear
7:56 AM 35.1 °F - 33.1 °F 92% 30.17 in 10.0 mi Calm Calm - N/A   Clear
8:56 AM 39.0 °F 34.0 °F 34.0 °F 82% 30.13 in 10.0 mi SE 6.9 mph - N/A   Clear
9:56 AM 44.1 °F 39.5 °F 35.1 °F 71% 30.08 in 10.0 mi SSW 8.1 mph - N/A   Clear
10:56 AM 46.9 °F - 34.0 °F 61% 30.04 in 10.0 mi South 8.1 mph - N/A   Clear
11:56 AM 50.0 °F - 35.1 °F 57% 30.01 in 10.0 mi South 11.5 mph - N/A   Mostly Cloudy
12:56 PM 50.0 °F - 36.0 °F 59% 29.96 in 10.0 mi South 13.8 mph - N/A   Mostly Cloudy
1:56 PM 51.1 °F - 39.9 °F 66% 29.92 in 10.0 mi SE 10.4 mph - N/A   Mostly Cloudy
2:56 PM 52.0 °F - 39.9 °F 63% 29.88 in 10.0 mi SSE 6.9 mph - N/A   Overcast
3:56 PM 53.1 °F - 37.0 °F 55% 29.83 in 10.0 mi SSW 16.1 mph 25.3 mph N/A   Overcast
4:56 PM 48.9 °F - 41.0 °F 74% 29.80 in 6.0 mi SSW 13.8 mph - 0.02 in Rain Rain
5:56 PM 46.9 °F - 43.0 °F 86% 29.79 in 10.0 mi South 16.1 mph - 0.10 in Rain Light Rain
6:56 PM 46.0 °F 39.6 °F 43.0 °F 89% 29.78 in 10.0 mi South 15.0 mph - 0.01 in Rain Light Rain
7:04 PM 46.4 °F 40.7 °F 42.8 °F 87% 29.77 in 8.0 mi South 12.7 mph - 0.00 in Rain Light Rain
7:22 PM 46.4 °F 40.4 °F 42.8 °F 87% 29.77 in 10.0 mi South 13.8 mph 21.9 mph 0.00 in   Overcast
7:56 PM 46.0 °F 40.2 °F 43.0 °F 89% 29.78 in 7.0 mi South 12.7 mph - 0.02 in Rain Heavy Rain
8:27 PM 44.6 °F 37.8 °F 42.8 °F 93% 29.79 in 5.0 mi SSW 15.0 mph 21.9 mph 0.04 in Rain Heavy Rain
8:40 PM 44.6 °F 38.4 °F 41.0 °F 87% 29.79 in 7.0 mi WSW 12.7 mph 23.0 mph 0.08 in Rain Heavy Rain
8:56 PM 45.0 °F 38.9 °F 39.9 °F 82% 29.79 in 10.0 mi SW 12.7 mph 21.9 mph 0.09 in   Mostly Cloudy
9:56 PM 43.0 °F 35.7 °F 39.0 °F 86% 29.82 in 10.0 mi SSW 15.0 mph 23.0 mph 0.00 in Rain Light Rain
10:56 PM 43.0 °F 35.7 °F 37.9 °F 82% 29.84 in 10.0 mi SSW 15.0 mph - 0.00 in Rain Light Rain
11:29 PM 42.8 °F 36.2 °F 37.4 °F 81% 29.87 in 9.0 mi SW 12.7 mph 23.0 mph 0.05 in Rain Rain
11:56 PM 41.0 °F 32.5 °F 37.0 °F 86% 29.90 in 10.0 mi SW 17.3 mph 21.9 mph 0.06 in Rain Light Rain